Location: Newark
(51.3000°N, 178.2000°W)
Time: 02:24:11
(UTC+00:00)

ISS - Pass Details

Date: 16 May 2021
Orbit: 417 x 422 km, 51.6° (Epoch: 15 June)

Event Time Altitude Azimuth Distance (km) Brightness Sun altitude
Rises 14:51:24 0° 280° (W) 2,375 -0.3 -9.0°
Reaches altitude 10° 14:54:10 10° 256° (WSW) 1,507 -1.4 -8.7°
Maximum altitude 14:56:09 15° 220° (SW) 1,244 -2.0 -8.5°
Drops below altitude 10° 14:58:08 10° 184° (S) 1,502 -1.4 -8.3°
Sets 15:00:52 0° 160° (SSE) 2,363 -0.2 -8.0°
